Regional Weather Roundup
Issued by NWS Goodland, KS

Home | Current Version | Previous Version | Graphics & Text | Print | Product List | Glossary On
Versions: 1 2 3 4 5 6 7 8 9 10 11 12 13 14 15 16 17 18 19 20 21 22 23 24 25 26 27 28 29 30 31 32 33 34 35 36 37 38 39 40 41 42 43 44 45 46 47 48 49 50
000
ASUS43 KGLD 272308
RWRGLD

GOODLAND FORECAST AREA HOURLY WEATHER ROUNDUP
NATIONAL WEATHER SERVICE GOODLAND KS
400 PM MST THU NOV 27 2014

...OFFICIAL OBSERVATIONS...

CITY           SKY/WX    TMP DP  RH WIND       PRES   REMARKS
GOODLAND KS    MOCLDY    60  25  26 S12       30.06F
HILL CITY KS   PTCLDY    50  24  36 S9        30.11F
IMPERIAL NEB   MOCLDY    54  30  40 SE3       30.03F
MCCOOK NEB     PTCLDY    53  26  35 S14       30.05F
AKRON CO       CLOUDY    49  31  49 W8        30.08S
BURLINGTON CO  CLOUDY    54  26  34 SW8       30.09F
LIMON CO       CLOUDY    51  22  31 NW9       30.14S
$$

...UNOFFICIAL OBSERVATIONS...

CITY           SKY/WX    TMP DP  RH WIND       PRES   REMARKS
COLBY KS       CLEAR     55  32  41 S7        30.07F
GOVE KS          N/A     53  32  45 MISG        N/A
NORTON KS      CLEAR     46  18  31 SE12      30.09S
SHARON SPRINGS   N/A     54  27  35 S12         N/A
TRIBUNE KS     MOCLDY    54  34  47 S8        30.13F
TRENTON NEB      N/A     51  32  48 SE12        N/A
YUMA CO          N/A     52  34  50 CALM        N/A
$$


USA.gov is the U.S. government's official web portal to all federal, state and local government web resources and services.